Time,TemperatureF,DewpointF,PressureIn,WindDirection,WindDirectionDegrees,WindSpeedMPH,WindSpeedGustMPH,Humidity,HourlyPrecipIn,Conditions,Clouds,dailyrainin,SoftwareType,DateUTC
2014-01-09 00:01:00,32.9,23.5,29.81,SE,135,8.1,9.8,68,0.00,,,0.00,WUHU216HW,2014-01-09 07:01:00,
2014-01-09 00:06:00,32.9,23.5,29.80,South,180,4.9,9.2,68,0.00,,,0.00,WUHU216HW,2014-01-09 07:06:00,
2014-01-09 00:11:00,32.8,23.3,29.80,SSW,203,3.4,8.1,68,0.00,,,0.00,WUHU216HW,2014-01-09 07:11:00,
2014-01-09 00:16:00,32.8,23.7,29.80,South,180,3.6,6.9,69,0.00,,,0.00,WUHU216HW,2014-01-09 07:16:00,
2014-01-09 00:21:00,32.6,23.5,29.80,ESE,113,8.3,8.3,69,0.00,,,0.00,WUHU216HW,2014-01-09 07:21:00,
2014-01-09 00:26:00,32.8,24.0,29.80,SE,135,7.6,10.5,70,0.00,,,0.00,WUHU216HW,2014-01-09 07:26:00,
2014-01-09 00:31:00,32.6,23.9,29.79,SE,135,9.8,12.8,70,0.00,,,0.00,WUHU216HW,2014-01-09 07:31:00,
2014-01-09 00:36:00,32.6,23.9,29.79,ESE,113,6.9,12.8,70,0.00,,,0.00,WUHU216HW,2014-01-09 07:36:00,
2014-01-09 00:41:00,32.6,23.9,29.79,South,180,3.4,10.7,70,0.00,,,0.00,WUHU216HW,2014-01-09 07:41:00,
2014-01-09 00:46:00,32.4,23.8,29.79,SSW,203,2.9,7.4,70,0.00,,,0.00,WUHU216HW,2014-01-09 07:46:00,
2014-01-09 00:51:00,32.2,23.6,29.78,SE,135,0.4,5.8,70,0.00,,,0.00,WUHU216HW,2014-01-09 07:51:00,
2014-01-09 00:56:00,32.0,23.4,29.78,West,270,1.1,2.5,70,0.00,,,0.00,WUHU216HW,2014-01-09 07:56:00,
2014-01-09 01:01:00,32.0,23.0,29.78,SSE,158,1.8,2.2,69,0.00,,,0.00,WUHU216HW,2014-01-09 08:01:00,
2014-01-09 01:06:00,32.0,22.7,29.77,WSW,248,2.2,2.5,68,0.00,,,0.00,WUHU216HW,2014-01-09 08:06:00,
2014-01-09 01:11:00,31.7,22.3,29.77,NE,45,1.6,2.9,68,0.00,,,0.00,WUHU216HW,2014-01-09 08:11:00,
2014-01-09 01:16:00,31.5,22.1,29.77,East,90,1.8,4.9,68,0.00,,,0.00,WUHU216HW,2014-01-09 08:16:00,
2014-01-09 01:21:00,31.7,22.3,29.77,SSW,203,5.4,9.2,68,0.00,,,0.00,WUHU216HW,2014-01-09 08:21:00,
2014-01-09 01:26:00,31.7,22.3,29.77,SW,225,5.4,9.2,68,0.00,,,0.00,WUHU216HW,2014-01-09 08:26:00,
2014-01-09 01:31:00,31.5,22.1,29.77,WNW,293,1.3,6.3,68,0.00,,,0.00,WUHU216HW,2014-01-09 08:31:00,
2014-01-09 01:36:00,31.3,22.0,29.77,NNW,338,0.7,5.4,68,0.00,,,0.00,WUHU216HW,2014-01-09 08:36:00,
2014-01-09 01:41:00,31.5,22.1,29.76,West,270,3.4,4.5,68,0.00,,,0.00,WUHU216HW,2014-01-09 08:41:00,
2014-01-09 01:46:00,31.9,22.5,29.76,WSW,248,0.0,4.0,68,0.00,,,0.00,WUHU216HW,2014-01-09 08:46:00,
2014-01-09 01:51:00,32.0,22.3,29.77,West,270,3.4,4.0,67,0.00,,,0.00,WUHU216HW,2014-01-09 08:51:00,
2014-01-09 01:56:00,32.0,22.0,29.76,ESE,113,2.7,4.7,66,0.00,,,0.00,WUHU216HW,2014-01-09 08:56:00,
2014-01-09 02:01:00,32.6,22.8,29.76,NW,315,3.1,5.4,67,0.00,,,0.00,WUHU216HW,2014-01-09 09:01:00,
2014-01-09 02:06:00,32.4,22.7,29.77,NNW,338,5.4,6.3,67,0.00,,,0.00,WUHU216HW,2014-01-09 09:06:00,
2014-01-09 02:11:00,32.0,22.3,29.77,NE,45,3.6,6.3,67,0.00,,,0.00,WUHU216HW,2014-01-09 09:11:00,
2014-01-09 02:16:00,31.7,22.3,29.77,ENE,68,5.8,6.0,68,0.00,,,0.00,WUHU216HW,2014-01-09 09:16:00,
2014-01-09 02:21:00,31.3,22.0,29.76,ESE,113,1.1,5.8,68,0.00,,,0.00,WUHU216HW,2014-01-09 09:21:00,
2014-01-09 02:26:00,31.3,22.3,29.77,NE,45,0.4,5.8,69,0.00,,,0.00,WUHU216HW,2014-01-09 09:26:00,
2014-01-09 02:31:00,31.0,22.7,29.77,NNE,23,4.7,4.7,71,0.00,,,0.00,WUHU216HW,2014-01-09 09:31:00,
2014-01-09 02:36:00,30.6,22.6,29.76,NNW,338,3.1,4.7,72,0.00,,,0.00,WUHU216HW,2014-01-09 09:36:00,
2014-01-09 02:41:00,30.6,22.6,29.76,North,0,3.1,4.7,72,0.00,,,0.00,WUHU216HW,2014-01-09 09:41:00,
2014-01-09 02:46:00,30.6,22.6,29.77,WNW,293,7.2,7.2,72,0.00,,,0.00,WUHU216HW,2014-01-09 09:46:00,
2014-01-09 02:51:00,30.6,22.6,29.77,North,0,1.3,7.2,72,0.00,,,0.00,WUHU216HW,2014-01-09 09:51:00,
2014-01-09 02:56:00,31.0,22.7,29.76,North,0,0.2,7.2,71,0.00,,,0.00,WUHU216HW,2014-01-09 09:56:00,
2014-01-09 03:01:00,31.1,22.9,29.77,WNW,293,4.9,5.8,71,0.00,,,0.00,WUHU216HW,2014-01-09 10:01:00,
2014-01-09 03:06:00,30.6,22.3,29.77,WNW,293,2.7,5.8,71,0.00,,,0.00,WUHU216HW,2014-01-09 10:06:00,
2014-01-09 03:11:00,30.2,22.6,29.77,WNW,293,4.7,5.4,73,0.00,,,0.00,WUHU216HW,2014-01-09 10:11:00,
2014-01-09 03:16:00,30.2,22.6,29.77,WSW,248,5.8,5.8,73,0.00,,,0.00,WUHU216HW,2014-01-09 10:16:00,
2014-01-09 03:21:00,30.4,22.8,29.76,WNW,293,5.6,6.7,73,0.00,,,0.00,WUHU216HW,2014-01-09 10:21:00,
2014-01-09 03:26:00,30.4,23.0,29.76,West,270,2.5,6.7,74,0.00,,,0.00,WUHU216HW,2014-01-09 10:26:00,
2014-01-09 03:31:00,30.6,23.0,29.76,WNW,293,6.9,6.9,73,0.00,,,0.00,WUHU216HW,2014-01-09 10:31:00,
2014-01-09 03:36:00,31.0,23.0,29.76,NW,315,4.0,7.6,72,0.00,,,0.00,WUHU216HW,2014-01-09 10:36:00,
2014-01-09 03:41:00,31.0,23.3,29.76,NW,315,3.4,7.6,73,0.00,,,0.00,WUHU216HW,2014-01-09 10:41:00,
2014-01-09 03:46:00,30.6,23.2,29.76,North,0,2.2,4.7,74,0.00,,,0.00,WUHU216HW,2014-01-09 10:46:00,
2014-01-09 03:51:00,30.6,23.2,29.75,NW,315,4.3,4.5,74,0.00,,,0.00,WUHU216HW,2014-01-09 10:51:00,
2014-01-09 03:56:00,30.6,23.2,29.75,WNW,293,5.4,7.2,74,0.00,,,0.00,WUHU216HW,2014-01-09 10:56:00,
2014-01-09 04:01:00,30.6,23.2,29.75,West,270,5.4,7.2,74,0.00,,,0.00,WUHU216HW,2014-01-09 11:01:00,
2014-01-09 04:06:00,30.4,23.0,29.75,NNW,338,3.6,6.3,74,0.00,,,0.00,WUHU216HW,2014-01-09 11:06:00,
2014-01-09 04:11:00,30.4,23.0,29.75,NW,315,4.7,6.9,74,0.00,,,0.00,WUHU216HW,2014-01-09 11:11:00,
2014-01-09 04:16:00,30.4,23.0,29.75,WSW,248,6.0,6.9,74,0.00,,,0.00,WUHU216HW,2014-01-09 11:16:00,
2014-01-09 04:21:00,30.6,23.2,29.75,WNW,293,4.7,7.6,74,0.00,,,0.00,WUHU216HW,2014-01-09 11:21:00,
2014-01-09 04:26:00,30.6,23.0,29.75,WSW,248,5.4,8.5,73,0.00,,,0.00,WUHU216HW,2014-01-09 11:26:00,
2014-01-09 04:31:00,30.8,23.1,29.75,WNW,293,4.5,8.5,73,0.00,,,0.00,WUHU216HW,2014-01-09 11:31:00,
2014-01-09 04:36:00,31.0,23.3,29.75,West,270,5.8,7.4,73,0.00,,,0.00,WUHU216HW,2014-01-09 11:36:00,
2014-01-09 04:41:00,31.3,23.3,29.74,West,270,4.5,6.7,72,0.00,,,0.00,WUHU216HW,2014-01-09 11:41:00,
2014-01-09 04:46:00,31.3,22.7,29.74,North,0,3.4,7.8,70,0.00,,,0.00,WUHU216HW,2014-01-09 11:46:00,
2014-01-09 04:51:00,31.7,23.0,29.75,West,270,6.0,7.8,70,0.00,,,0.00,WUHU216HW,2014-01-09 11:51:00,
2014-01-09 04:56:00,31.3,23.1,29.75,West,270,3.4,6.5,71,0.00,,,0.00,WUHU216HW,2014-01-09 11:56:00,
2014-01-09 05:01:00,31.1,23.1,29.75,NW,315,3.1,6.5,72,0.00,,,0.00,WUHU216HW,2014-01-09 12:01:00,
2014-01-09 05:06:00,31.1,22.9,29.74,NW,315,1.3,4.7,71,0.00,,,0.00,WUHU216HW,2014-01-09 12:06:00,
2014-01-09 05:11:00,31.3,23.3,29.75,WNW,293,4.9,4.9,72,0.00,,,0.00,WUHU216HW,2014-01-09 12:11:00,
2014-01-09 05:16:00,31.3,23.3,29.74,NW,315,0.0,5.1,72,0.00,,,0.00,WUHU216HW,2014-01-09 12:16:00,
2014-01-09 05:21:00,31.3,23.3,29.74,ESE,113,0.7,5.1,72,0.00,,,0.00,WUHU216HW,2014-01-09 12:21:00,
2014-01-09 05:26:00,31.3,23.3,29.74,North,0,0.9,2.7,72,0.00,,,0.00,WUHU216HW,2014-01-09 12:26:00,
2014-01-09 05:31:00,31.1,23.1,29.74,West,270,2.7,2.7,72,0.00,,,0.00,WUHU216HW,2014-01-09 12:31:00,
2014-01-09 05:36:00,31.0,23.3,29.74,NW,315,1.8,2.7,73,0.00,,,0.00,WUHU216HW,2014-01-09 12:36:00,
2014-01-09 05:41:00,31.0,23.6,29.74,NNW,338,1.6,2.7,74,0.00,,,0.00,WUHU216HW,2014-01-09 12:41:00,
2014-01-09 05:46:00,30.6,23.2,29.74,North,0,0.9,2.7,74,0.00,,,0.00,WUHU216HW,2014-01-09 12:46:00,
2014-01-09 05:51:00,30.6,23.0,29.73,SW,225,3.1,4.0,73,0.00,,,0.00,WUHU216HW,2014-01-09 12:51:00,
2014-01-09 05:56:00,30.6,23.2,29.74,SW,225,1.8,4.7,74,0.00,,,0.00,WUHU216HW,2014-01-09 12:56:00,
2014-01-09 06:01:00,30.4,23.0,29.74,SW,225,0.0,4.7,74,0.00,,,0.00,WUHU216HW,2014-01-09 13:01:00,
2014-01-09 06:06:00,30.2,22.9,29.73,SW,225,0.4,2.2,74,0.00,,,0.00,WUHU216HW,2014-01-09 13:06:00,
2014-01-09 06:11:00,30.2,22.9,29.73,West,270,2.9,2.9,74,0.00,,,0.00,WUHU216HW,2014-01-09 13:11:00,
2014-01-09 06:16:00,30.2,22.9,29.73,ESE,113,1.8,4.0,74,0.00,,,0.00,WUHU216HW,2014-01-09 13:16:00,
2014-01-09 06:21:00,30.2,22.9,29.72,SE,135,4.0,10.3,74,0.00,,,0.00,WUHU216HW,2014-01-09 13:21:00,
2014-01-09 06:26:00,30.4,23.0,29.73,SE,135,2.7,10.3,74,0.00,,,0.00,WUHU216HW,2014-01-09 13:26:00,
2014-01-09 06:31:00,30.8,23.8,29.72,East,90,10.3,11.6,75,0.00,,,0.00,WUHU216HW,2014-01-09 13:31:00,
2014-01-09 06:36:00,31.0,23.6,29.72,ESE,113,2.7,11.6,74,0.00,,,0.00,WUHU216HW,2014-01-09 13:36:00,
2014-01-09 06:41:00,31.0,23.6,29.72,NE,45,3.4,10.3,74,0.00,,,0.00,WUHU216HW,2014-01-09 13:41:00,
2014-01-09 06:46:00,31.0,23.6,29.72,East,90,4.7,4.7,74,0.00,,,0.00,WUHU216HW,2014-01-09 13:46:00,
2014-01-09 06:51:00,31.0,24.6,29.72,ENE,68,3.8,5.1,77,0.00,,,0.00,WUHU216HW,2014-01-09 13:51:00,
2014-01-09 06:56:00,30.8,24.1,29.72,East,90,4.7,5.1,76,0.00,,,0.00,WUHU216HW,2014-01-09 13:56:00,
2014-01-09 07:01:00,30.6,24.0,29.73,WNW,293,3.4,6.3,76,0.00,,,0.00,WUHU216HW,2014-01-09 14:01:00,
2014-01-09 07:06:00,30.4,23.8,29.73,NE,45,1.6,6.3,76,0.00,,,0.00,WUHU216HW,2014-01-09 14:06:00,
2014-01-09 07:11:00,30.4,23.8,29.73,ESE,113,1.1,3.4,76,0.00,,,0.00,WUHU216HW,2014-01-09 14:11:00,
2014-01-09 07:16:00,30.4,23.8,29.73,East,90,2.2,2.7,76,0.00,,,0.00,WUHU216HW,2014-01-09 14:16:00,
2014-01-09 07:21:00,30.4,23.8,29.73,ESE,113,0.9,2.7,76,0.00,,,0.00,WUHU216HW,2014-01-09 14:21:00,
2014-01-09 07:26:00,30.2,23.6,29.73,SE,135,1.1,2.5,76,0.00,,,0.00,WUHU216HW,2014-01-09 14:26:00,
2014-01-09 07:31:00,30.2,23.6,29.73,SW,225,0.9,1.8,76,0.00,,,0.00,WUHU216HW,2014-01-09 14:31:00,
2014-01-09 07:36:00,30.2,23.6,29.72,ESE,113,1.3,2.2,76,0.00,,,0.00,WUHU216HW,2014-01-09 14:36:00,
2014-01-09 07:41:00,30.2,23.9,29.72,SSW,203,0.4,4.7,77,0.00,,,0.00,WUHU216HW,2014-01-09 14:41:00,
2014-01-09 07:46:00,30.1,23.7,29.72,SSW,203,1.8,4.7,77,0.00,,,0.00,WUHU216HW,2014-01-09 14:46:00,
2014-01-09 07:51:00,29.9,23.5,29.72,SSW,203,2.0,3.4,77,0.00,,,0.00,WUHU216HW,2014-01-09 14:51:00,
2014-01-09 07:56:00,29.9,23.5,29.72,WSW,248,0.0,3.4,77,0.00,,,0.00,WUHU216HW,2014-01-09 14:56:00,
2014-01-09 08:01:00,29.9,23.2,29.72,SE,135,0.0,2.5,76,0.00,,,0.00,WUHU216HW,2014-01-09 15:01:00,
2014-01-09 08:06:00,29.5,23.1,29.73,WNW,293,2.7,2.7,77,0.00,,,0.00,WUHU216HW,2014-01-09 15:06:00,
2014-01-09 08:11:00,29.2,23.5,29.73,NNE,23,1.8,4.0,79,0.00,,,0.00,WUHU216HW,2014-01-09 15:11:00,
2014-01-09 08:16:00,29.3,23.7,29.72,NE,45,0.0,4.0,79,0.00,,,0.00,WUHU216HW,2014-01-09 15:16:00,
2014-01-09 08:21:00,29.3,23.3,29.72,WSW,248,0.0,3.4,78,0.00,,,0.00,WUHU216HW,2014-01-09 15:21:00,
2014-01-09 08:26:00,29.3,23.3,29.72,SSE,158,2.9,3.4,78,0.00,,,0.00,WUHU216HW,2014-01-09 15:26:00,
2014-01-09 08:31:00,29.3,23.3,29.72,SW,225,6.5,6.9,78,0.00,,,0.00,WUHU216HW,2014-01-09 15:31:00,
2014-01-09 08:36:00,29.2,23.1,29.72,SSE,158,2.5,6.9,78,0.00,,,0.00,WUHU216HW,2014-01-09 15:36:00,
2014-01-09 08:41:00,29.2,23.1,29.72,West,270,4.3,6.5,78,0.00,,,0.00,WUHU216HW,2014-01-09 15:41:00,
2014-01-09 08:46:00,27.9,22.2,29.72,NNW,338,3.6,5.6,79,0.00,,,0.00,WUHU216HW,2014-01-09 15:46:00,
2014-01-09 08:51:00,27.7,22.6,29.73,North,0,2.2,5.6,81,0.00,,,0.00,WUHU216HW,2014-01-09 15:51:00,
2014-01-09 08:56:00,27.7,22.3,29.73,North,0,1.3,3.6,80,0.00,,,0.00,WUHU216HW,2014-01-09 15:56:00,
2014-01-09 09:01:00,27.7,22.3,29.73,WNW,293,3.4,4.3,80,0.00,,,0.00,WUHU216HW,2014-01-09 16:01:00,
2014-01-09 09:06:00,27.7,22.6,29.73,WNW,293,6.5,6.5,81,0.00,,,0.00,WUHU216HW,2014-01-09 16:06:00,
2014-01-09 09:11:00,28.1,23.0,29.73,WNW,293,2.5,6.7,81,0.00,,,0.00,WUHU216HW,2014-01-09 16:11:00,
2014-01-09 09:16:00,28.4,23.3,29.74,West,270,4.5,6.7,81,0.00,,,0.00,WUHU216HW,2014-01-09 16:16:00,
2014-01-09 09:21:00,28.8,23.4,29.74,West,270,3.4,5.4,80,0.00,,,0.00,WUHU216HW,2014-01-09 16:21:00,
2014-01-09 09:26:00,29.2,23.8,29.73,West,270,4.9,4.9,80,0.00,,,0.00,WUHU216HW,2014-01-09 16:26:00,
2014-01-09 09:31:00,29.7,23.9,29.73,SW,225,4.3,4.9,79,0.00,,,0.00,WUHU216HW,2014-01-09 16:31:00,
2014-01-09 09:36:00,30.1,24.0,29.74,West,270,2.5,4.9,78,0.00,,,0.00,WUHU216HW,2014-01-09 16:36:00,
2014-01-09 09:41:00,30.2,24.2,29.74,NNW,338,2.9,4.7,78,0.00,,,0.00,WUHU216HW,2014-01-09 16:41:00,
2014-01-09 09:46:00,30.1,24.0,29.74,North,0,5.4,5.4,78,0.00,,,0.00,WUHU216HW,2014-01-09 16:46:00,
2014-01-09 09:51:00,29.9,23.9,29.75,NNW,338,2.2,6.5,78,0.00,,,0.00,WUHU216HW,2014-01-09 16:51:00,
2014-01-09 09:56:00,29.7,23.9,29.75,NW,315,2.9,6.5,79,0.00,,,0.00,WUHU216HW,2014-01-09 16:56:00,
2014-01-09 10:01:00,29.7,23.9,29.75,NW,315,4.0,5.6,79,0.00,,,0.00,WUHU216HW,2014-01-09 17:01:00,
2014-01-09 10:06:00,30.1,24.3,29.75,WNW,293,2.5,5.6,79,0.00,,,0.00,WUHU216HW,2014-01-09 17:06:00,
2014-01-09 10:11:00,30.4,24.7,29.75,WNW,293,1.8,5.4,79,0.00,,,0.00,WUHU216HW,2014-01-09 17:11:00,
2014-01-09 10:16:00,30.8,24.8,29.75,NW,315,5.4,8.5,78,0.00,,,0.00,WUHU216HW,2014-01-09 17:16:00,
2014-01-09 10:21:00,31.0,24.9,29.75,NW,315,5.8,8.5,78,0.00,,,0.00,WUHU216HW,2014-01-09 17:21:00,
2014-01-09 10:26:00,31.1,24.8,29.75,NNW,338,1.3,6.5,77,0.00,,,0.00,WUHU216HW,2014-01-09 17:26:00,
2014-01-09 10:31:00,31.5,25.1,29.75,WNW,293,4.5,5.8,77,0.00,,,0.00,WUHU216HW,2014-01-09 17:31:00,
2014-01-09 10:36:00,31.7,25.0,29.75,West,270,3.8,5.1,76,0.00,,,0.00,WUHU216HW,2014-01-09 17:36:00,
2014-01-09 10:41:00,31.9,25.2,29.75,WSW,248,2.7,6.3,76,0.00,,,0.00,WUHU216HW,2014-01-09 17:41:00,
2014-01-09 10:46:00,32.2,25.5,29.75,WSW,248,1.8,6.3,76,0.00,,,0.00,WUHU216HW,2014-01-09 17:46:00,
2014-01-09 10:58:00,33.3,25.5,29.75,NW,315,5.8,5.8,73,0.00,,,0.00,WUHU216HW,2014-01-09 17:58:00,
2014-01-09 11:03:00,33.1,25.4,29.76,NW,315,4.5,6.9,73,0.00,,,0.00,WUHU216HW,2014-01-09 18:03:00,
2014-01-09 11:11:00,32.9,25.5,29.76,NW,315,4.7,6.9,74,0.00,,,0.00,WUHU216HW,2014-01-09 18:11:00,
2014-01-09 11:16:00,32.8,26.0,29.77,WNW,293,5.4,9.2,76,0.00,,,0.00,WUHU216HW,2014-01-09 18:16:00,
2014-01-09 11:21:00,32.8,26.3,29.76,North,0,2.0,8.9,77,0.00,,,0.00,WUHU216HW,2014-01-09 18:21:00,
2014-01-09 11:26:00,32.9,26.8,29.75,NNE,23,2.5,9.2,78,0.00,,,0.00,WUHU216HW,2014-01-09 18:26:00,
2014-01-09 11:31:00,33.1,26.6,29.75,NW,315,2.5,9.2,77,0.00,,,0.00,WUHU216HW,2014-01-09 18:31:00,
2014-01-09 11:36:00,33.8,27.0,29.75,West,270,1.8,4.7,76,0.00,,,0.00,WUHU216HW,2014-01-09 18:36:00,
2014-01-09 11:41:00,34.9,27.4,29.75,North,0,2.5,4.0,74,0.00,,,0.00,WUHU216HW,2014-01-09 18:41:00,
2014-01-09 11:46:00,35.3,27.1,29.75,NNE,23,3.1,6.0,72,0.00,,,0.00,WUHU216HW,2014-01-09 18:46:00,
2014-01-09 11:51:00,35.5,26.3,29.75,NE,45,3.4,6.0,69,0.00,,,0.00,WUHU216HW,2014-01-09 18:51:00,
2014-01-09 11:56:00,35.5,25.6,29.75,North,0,6.3,10.5,67,0.00,,,0.00,WUHU216HW,2014-01-09 18:56:00,
2014-01-09 12:01:00,35.6,25.0,29.75,NE,45,7.2,10.5,65,0.00,,,0.00,WUHU216HW,2014-01-09 19:01:00,
2014-01-09 12:06:00,35.6,24.7,29.74,NE,45,16.8,16.8,64,0.00,,,0.00,WUHU216HW,2014-01-09 19:06:00,
2014-01-09 12:11:00,35.6,24.3,29.74,ENE,68,6.5,16.8,63,0.00,,,0.00,WUHU216HW,2014-01-09 19:11:00,
2014-01-09 12:16:00,35.6,23.9,29.74,NW,315,8.5,16.8,62,0.00,,,0.00,WUHU216HW,2014-01-09 19:16:00,
2014-01-09 12:21:00,35.5,23.4,29.74,WSW,248,9.8,13.4,61,0.00,,,0.00,WUHU216HW,2014-01-09 19:21:00,
2014-01-09 12:26:00,36.0,22.7,29.74,WSW,248,6.0,16.8,58,0.00,,,0.00,WUHU216HW,2014-01-09 19:26:00,
2014-01-09 12:31:00,36.4,22.6,29.74,WNW,293,9.2,16.8,57,0.00,,,0.00,WUHU216HW,2014-01-09 19:31:00,
2014-01-09 12:38:00,36.5,21.9,29.74,WNW,293,16.3,21.7,55,0.00,,,0.00,WUHU216HW,2014-01-09 19:38:00,
2014-01-09 12:43:00,36.5,21.4,29.73,NW,315,12.1,21.7,54,0.00,,,0.00,WUHU216HW,2014-01-09 19:43:00,
2014-01-09 12:45:00,36.5,21.4,29.73,WSW,248,11.4,19.2,54,0.00,,,0.00,WUHU216HW,2014-01-09 19:45:00,
2014-01-09 12:49:00,36.5,21.4,29.73,WSW,248,11.4,19.2,54,0.00,,,0.00,WUHU216HW,2014-01-09 19:49:00,
2014-01-09 12:55:00,36.4,22.6,29.74,SSE,158,3.4,13.0,57,0.00,,,0.00,WUHU216HW,2014-01-09 19:55:00,
2014-01-09 13:00:00,36.5,21.9,29.73,SW,225,8.3,10.7,55,0.00,,,0.00,WUHU216HW,2014-01-09 20:00:00,
2014-01-09 13:06:00,36.9,21.8,29.73,SW,225,5.4,11.2,54,0.00,,,0.00,WUHU216HW,2014-01-09 20:06:00,
2014-01-09 13:11:00,37.1,22.3,29.74,SE,135,8.1,11.2,55,0.00,,,0.00,WUHU216HW,2014-01-09 20:11:00,
2014-01-09 13:16:00,37.1,23.7,29.74,WNW,293,0.4,8.5,58,0.00,,,0.00,WUHU216HW,2014-01-09 20:16:00,
2014-01-09 13:21:00,36.7,25.3,29.74,SSE,158,7.2,10.3,63,0.00,,,0.00,WUHU216HW,2014-01-09 20:21:00,
2014-01-09 13:26:00,36.4,25.4,29.73,SE,135,10.7,13.4,64,0.00,,,0.00,WUHU216HW,2014-01-09 20:26:00,
2014-01-09 13:31:00,36.2,25.6,29.73,SE,135,4.3,13.4,65,0.00,,,0.00,WUHU216HW,2014-01-09 20:31:00,
2014-01-09 13:37:00,36.2,25.6,29.73,ENE,68,6.0,13.4,65,0.00,,,0.00,WUHU216HW,2014-01-09 20:37:00,
2014-01-09 13:44:00,36.7,21.6,29.73,West,270,3.4,7.2,54,0.00,,,0.00,WUHU216HW,2014-01-09 20:44:00,
2014-01-09 13:49:00,37.1,23.2,29.73,ESE,113,1.6,6.7,57,0.00,,,0.00,WUHU216HW,2014-01-09 20:49:00,
2014-01-09 13:54:00,37.3,24.2,29.73,SE,135,4.7,6.3,59,0.00,,,0.00,WUHU216HW,2014-01-09 20:54:00,
2014-01-09 14:00:00,37.3,24.7,29.73,South,180,3.8,6.3,60,0.00,,,0.00,WUHU216HW,2014-01-09 21:00:00,
2014-01-09 14:05:00,36.4,23.9,29.73,NNW,338,2.0,6.3,60,0.00,,,0.00,WUHU216HW,2014-01-09 21:05:00,
2014-01-09 14:11:00,35.3,23.6,29.74,NE,45,4.0,6.3,62,0.00,,,0.00,WUHU216HW,2014-01-09 21:11:00,
2014-01-09 14:16:00,35.3,23.9,29.74,NNE,23,3.6,5.8,63,0.00,,,0.00,WUHU216HW,2014-01-09 21:16:00,
2014-01-09 14:21:00,35.6,20.6,29.74,NW,315,8.5,8.5,54,0.00,,,0.00,WUHU216HW,2014-01-09 21:21:00,
2014-01-09 14:28:00,36.5,19.7,29.74,NW,315,11.6,18.1,50,0.00,,,0.00,WUHU216HW,2014-01-09 21:28:00,
2014-01-09 14:33:00,36.5,18.6,29.74,NW,315,11.6,18.1,48,0.00,,,0.00,WUHU216HW,2014-01-09 21:33:00,
2014-01-09 14:38:00,36.4,19.0,29.74,NNW,338,11.6,16.3,49,0.00,,,0.00,WUHU216HW,2014-01-09 21:38:00,
2014-01-09 14:43:00,36.2,19.4,29.75,WNW,293,6.0,16.3,50,0.00,,,0.00,WUHU216HW,2014-01-09 21:43:00,
2014-01-09 14:48:00,36.2,17.8,29.75,WNW,293,9.8,14.8,47,0.00,,,0.00,WUHU216HW,2014-01-09 21:48:00,
2014-01-09 14:54:00,36.4,19.0,29.75,NNE,23,3.8,18.6,49,0.00,,,0.00,WUHU216HW,2014-01-09 21:54:00,
2014-01-09 15:00:00,35.6,19.4,29.75,NNW,338,5.6,18.6,51,0.00,,,0.00,WUHU216HW,2014-01-09 22:00:00,
2014-01-09 15:05:00,35.6,19.8,29.76,NNW,338,8.1,10.5,52,0.00,,,0.00,WUHU216HW,2014-01-09 22:05:00,
2014-01-09 15:11:00,35.6,20.2,29.76,NW,315,10.1,15.7,53,0.00,,,0.00,WUHU216HW,2014-01-09 22:11:00,
2014-01-09 15:16:00,35.3,19.8,29.76,WNW,293,6.5,15.7,53,0.00,,,0.00,WUHU216HW,2014-01-09 22:16:00,
2014-01-09 15:18:00,35.3,20.3,29.77,WNW,293,4.7,15.7,54,0.00,,,0.00,WUHU216HW,2014-01-09 22:18:00,
2014-01-09 15:22:00,35.3,20.3,29.77,WNW,293,4.7,15.7,54,0.00,,,0.00,WUHU216HW,2014-01-09 22:22:00,
2014-01-09 15:27:00,35.3,20.3,29.77,WNW,293,4.7,15.7,54,0.00,,,0.00,WUHU216HW,2014-01-09 22:27:00,
2014-01-09 15:34:00,35.3,19.8,29.77,West,270,10.3,10.3,53,0.00,,,0.00,WUHU216HW,2014-01-09 22:34:00,
2014-01-09 15:39:00,35.5,19.6,29.77,NNW,338,8.3,10.3,52,0.00,,,0.00,WUHU216HW,2014-01-09 22:39:00,
2014-01-09 15:44:00,35.3,19.5,29.78,West,270,2.5,10.3,52,0.00,,,0.00,WUHU216HW,2014-01-09 22:44:00,
2014-01-09 15:50:00,34.9,19.1,29.78,NNW,338,3.8,13.2,52,0.00,,,0.00,WUHU216HW,2014-01-09 22:50:00,
2014-01-09 15:52:00,34.2,18.7,29.78,NNW,338,5.1,13.2,53,0.00,,,0.00,WUHU216HW,2014-01-09 22:52:00,
2014-01-09 15:55:00,34.2,18.7,29.78,NNW,338,5.1,13.2,53,0.00,,,0.00,WUHU216HW,2014-01-09 22:55:00,
2014-01-09 15:57:00,33.7,18.6,29.78,North,0,6.9,13.2,54,0.00,,,0.00,WUHU216HW,2014-01-09 22:57:00,
2014-01-09 15:59:00,33.5,18.6,29.79,North,0,12.1,12.1,54,0.00,,,0.00,WUHU216HW,2014-01-09 22:59:00,
2014-01-09 16:01:00,33.1,19.1,29.79,North,0,12.8,12.8,56,0.00,,,0.00,WUHU216HW,2014-01-09 23:01:00,
2014-01-09 16:03:00,33.1,19.1,29.79,NNE,23,8.7,12.8,56,0.00,,,0.00,WUHU216HW,2014-01-09 23:03:00,
2014-01-09 16:05:00,32.9,18.9,29.79,NNE,23,11.4,12.8,56,0.00,,,0.00,WUHU216HW,2014-01-09 23:05:00,
2014-01-09 16:07:00,32.9,18.9,29.79,NNE,23,11.4,12.8,56,0.00,,,0.00,WUHU216HW,2014-01-09 23:07:00,
2014-01-09 16:09:00,32.8,18.7,29.79,NNE,23,13.2,16.3,56,0.00,,,0.00,WUHU216HW,2014-01-09 23:09:00,
2014-01-09 16:11:00,32.8,19.2,29.79,North,0,11.0,16.3,57,0.00,,,0.00,WUHU216HW,2014-01-09 23:11:00,
2014-01-09 16:13:00,32.6,19.0,29.79,North,0,11.0,16.3,57,0.00,,,0.00,WUHU216HW,2014-01-09 23:13:00,
2014-01-09 16:17:00,32.6,19.0,29.79,NNE,23,5.4,16.3,57,0.00,,,0.00,WUHU216HW,2014-01-09 23:17:00,
2014-01-09 16:18:00,32.4,19.3,29.79,North,0,3.8,15.7,58,0.00,,,0.00,WUHU216HW,2014-01-09 23:18:00,
2014-01-09 16:20:00,32.2,18.6,29.79,NNW,338,5.4,12.5,57,0.00,,,0.00,WUHU216HW,2014-01-09 23:20:00,
2014-01-09 16:22:00,32.4,18.8,29.79,NNW,338,11.4,11.4,57,0.00,,,0.00,WUHU216HW,2014-01-09 23:22:00,
2014-01-09 16:24:00,32.4,18.4,29.79,NW,315,9.2,11.4,56,0.00,,,0.00,WUHU216HW,2014-01-09 23:24:00,
2014-01-09 16:26:00,32.4,18.4,29.79,NW,315,9.2,11.4,56,0.00,,,0.00,WUHU216HW,2014-01-09 23:26:00,
2014-01-09 16:28:00,32.4,18.8,29.80,NNW,338,4.0,11.4,57,0.00,,,0.00,WUHU216HW,2014-01-09 23:28:00,
2014-01-09 16:30:00,32.4,18.8,29.80,NW,315,1.8,11.4,57,0.00,,,0.00,WUHU216HW,2014-01-09 23:30:00,
2014-01-09 16:31:00,32.4,18.8,29.80,NW,315,1.8,11.4,57,0.00,,,0.00,WUHU216HW,2014-01-09 23:31:00,
2014-01-09 16:37:00,32.0,18.6,29.80,NNW,338,4.7,8.1,57,0.00,,,0.00,WUHU216HW,2014-01-09 23:37:00,
2014-01-09 16:41:00,32.0,18.1,29.80,West,270,7.6,10.1,56,0.00,,,0.00,WUHU216HW,2014-01-09 23:41:00,
2014-01-09 16:42:00,32.0,18.1,29.80,West,270,7.6,10.1,56,0.00,,,0.00,WUHU216HW,2014-01-09 23:42:00,
2014-01-09 16:43:00,32.0,18.1,29.80,West,270,6.5,10.1,56,0.00,,,0.00,WUHU216HW,2014-01-09 23:43:00,
2014-01-09 16:45:00,32.2,17.4,29.80,WNW,293,9.6,10.1,54,0.00,,,0.00,WUHU216HW,2014-01-09 23:45:00,
2014-01-09 16:47:00,32.6,17.3,29.80,NW,315,16.3,17.7,53,0.00,,,0.00,WUHU216HW,2014-01-09 23:47:00,
2014-01-09 16:49:00,32.8,17.0,29.80,WSW,248,11.6,19.7,52,0.00,,,0.00,WUHU216HW,2014-01-09 23:49:00,
2014-01-09 16:51:00,33.1,16.5,29.80,WNW,293,11.2,19.7,50,0.00,,,0.00,WUHU216HW,2014-01-09 23:51:00,
2014-01-09 16:53:00,33.5,17.2,29.80,WSW,248,6.9,19.7,51,0.00,,,0.00,WUHU216HW,2014-01-09 23:53:00,
2014-01-09 16:55:00,33.7,15.4,29.80,West,270,10.5,19.7,47,0.00,,,0.00,WUHU216HW,2014-01-09 23:55:00,
2014-01-09 16:57:00,33.5,15.3,29.80,West,270,11.4,19.7,47,0.00,,,0.00,WUHU216HW,2014-01-09 23:57:00,
2014-01-09 16:59:00,33.5,15.3,29.80,WNW,293,4.0,15.0,47,0.00,,,0.00,WUHU216HW,2014-01-09 23:59:00,
2014-01-09 17:01:00,33.3,15.6,29.80,WNW,293,12.8,15.0,48,0.00,,,0.00,WUHU216HW,2014-01-10 00:01:00,
2014-01-09 17:03:00,32.9,15.3,29.81,WNW,293,6.3,15.0,48,0.00,,,0.00,WUHU216HW,2014-01-10 00:03:00,
2014-01-09 17:05:00,32.8,15.7,29.81,WSW,248,6.3,15.0,49,0.00,,,0.00,WUHU216HW,2014-01-10 00:05:00,
2014-01-09 17:07:00,32.4,15.3,29.81,West,270,7.8,14.5,49,0.00,,,0.00,WUHU216HW,2014-01-10 00:07:00,
2014-01-09 17:09:00,32.4,15.9,29.80,NW,315,7.2,13.0,50,0.00,,,0.00,WUHU216HW,2014-01-10 00:09:00,
2014-01-09 17:20:00,31.9,15.3,29.81,North,0,4.7,12.1,50,0.00,,,0.00,WUHU216HW,2014-01-10 00:20:00,
2014-01-09 17:25:00,31.7,16.0,29.81,ENE,68,4.0,12.1,52,0.00,,,0.00,WUHU216HW,2014-01-10 00:25:00,
2014-01-09 17:30:00,30.6,15.8,29.81,NE,45,8.5,12.1,54,0.00,,,0.00,WUHU216HW,2014-01-10 00:30:00,
2014-01-09 17:35:00,29.3,15.9,29.81,NNE,23,8.5,10.3,57,0.00,,,0.00,WUHU216HW,2014-01-10 00:35:00,
2014-01-09 17:40:00,29.0,15.7,29.81,NNE,23,7.6,10.3,57,0.00,,,0.00,WUHU216HW,2014-01-10 00:40:00,
2014-01-09 17:45:00,29.2,15.4,29.81,NE,45,10.5,12.1,56,0.00,,,0.00,WUHU216HW,2014-01-10 00:45:00,
2014-01-09 17:50:00,29.2,15.4,29.82,NNE,23,7.6,12.1,56,0.00,,,0.00,WUHU216HW,2014-01-10 00:50:00,
2014-01-09 17:55:00,29.2,15.4,29.82,NNE,23,10.7,11.9,56,0.00,,,0.00,WUHU216HW,2014-01-10 00:55:00,
2014-01-09 18:00:00,29.0,15.2,29.82,NNW,338,6.9,11.4,56,0.00,,,0.00,WUHU216HW,2014-01-10 01:00:00,
2014-01-09 18:05:00,29.2,14.1,29.82,North,0,6.5,10.7,53,0.00,,,0.00,WUHU216HW,2014-01-10 01:05:00,
2014-01-09 18:10:00,29.5,14.5,29.82,NNW,338,8.5,10.5,53,0.00,,,0.00,WUHU216HW,2014-01-10 01:10:00,
2014-01-09 18:15:00,29.9,14.4,29.82,NNW,338,10.5,12.8,52,0.00,,,0.00,WUHU216HW,2014-01-10 01:15:00,
2014-01-09 18:20:00,29.5,14.5,29.82,North,0,7.4,12.8,53,0.00,,,0.00,WUHU216HW,2014-01-10 01:20:00,
2014-01-09 18:25:00,29.5,14.5,29.82,West,270,2.5,11.6,53,0.00,,,0.00,WUHU216HW,2014-01-10 01:25:00,
2014-01-09 18:30:00,29.3,13.9,29.83,NW,315,6.3,10.7,52,0.00,,,0.00,WUHU216HW,2014-01-10 01:30:00,
2014-01-09 18:35:00,29.9,14.8,29.83,NNW,338,13.4,13.4,53,0.00,,,0.00,WUHU216HW,2014-01-10 01:35:00,
2014-01-09 18:40:00,29.9,14.8,29.83,North,0,12.8,13.4,53,0.00,,,0.00,WUHU216HW,2014-01-10 01:40:00,
2014-01-09 18:45:00,29.9,14.8,29.83,North,0,7.2,12.8,53,0.00,,,0.00,WUHU216HW,2014-01-10 01:45:00,
2014-01-09 18:50:00,30.4,14.9,29.83,NNW,338,2.5,12.8,52,0.00,,,0.00,WUHU216HW,2014-01-10 01:50:00,
2014-01-09 18:55:00,30.1,14.5,29.83,North,0,11.6,11.6,52,0.00,,,0.00,WUHU216HW,2014-01-10 01:55:00,
2014-01-09 19:00:00,29.9,14.8,29.83,North,0,7.6,15.4,53,0.00,,,0.00,WUHU216HW,2014-01-10 02:00:00,
2014-01-09 19:05:00,29.2,14.9,29.83,NE,45,9.8,15.4,55,0.00,,,0.00,WUHU216HW,2014-01-10 02:05:00,
2014-01-09 19:10:00,29.9,14.8,29.83,West,270,5.4,34.7,53,0.00,,,0.00,WUHU216HW,2014-01-10 02:10:00,
2014-01-09 19:15:00,29.9,14.0,29.83,SSW,203,6.5,34.7,51,0.00,,,0.00,WUHU216HW,2014-01-10 02:15:00,
2014-01-09 19:20:00,30.6,14.2,29.83,North,0,5.8,20.1,50,0.00,,,0.00,WUHU216HW,2014-01-10 02:20:00,
2014-01-09 19:25:00,29.7,13.8,29.83,NNW,338,10.1,13.4,51,0.00,,,0.00,WUHU216HW,2014-01-10 02:25:00,
2014-01-09 19:30:00,29.9,14.0,29.83,NW,315,4.0,10.7,51,0.00,,,0.00,WUHU216HW,2014-01-10 02:30:00,
2014-01-09 19:35:00,29.9,13.1,29.83,North,0,2.5,10.1,49,0.00,,,0.00,WUHU216HW,2014-01-10 02:35:00,
2014-01-09 19:40:00,30.2,12.3,29.83,NNE,23,2.5,9.8,47,0.00,,,0.00,WUHU216HW,2014-01-10 02:40:00,
2014-01-09 19:45:00,30.6,13.7,29.83,SE,135,1.8,3.1,49,0.00,,,0.00,WUHU216HW,2014-01-10 02:45:00,
2014-01-09 19:50:00,30.2,13.9,29.83,ENE,68,6.0,6.0,50,0.00,,,0.00,WUHU216HW,2014-01-10 02:50:00,
2014-01-09 19:55:00,29.9,14.0,29.83,ENE,68,4.3,6.9,51,0.00,,,0.00,WUHU216HW,2014-01-10 02:55:00,
2014-01-09 20:00:00,29.5,14.0,29.83,East,90,1.1,6.9,52,0.00,,,0.00,WUHU216HW,2014-01-10 03:00:00,
2014-01-09 20:05:00,29.2,13.7,29.83,SE,135,1.8,5.4,52,0.00,,,0.00,WUHU216HW,2014-01-10 03:05:00,
2014-01-09 20:10:00,29.0,13.6,29.82,NE,45,2.5,3.8,52,0.00,,,0.00,WUHU216HW,2014-01-10 03:10:00,
2014-01-09 20:15:00,28.6,13.2,29.82,ENE,68,4.3,4.3,52,0.00,,,0.00,WUHU216HW,2014-01-10 03:15:00,
2014-01-09 20:20:00,28.4,13.1,29.83,East,90,3.1,6.0,52,0.00,,,0.00,WUHU216HW,2014-01-10 03:20:00,
2014-01-09 20:25:00,28.3,13.3,29.83,East,90,3.8,6.0,53,0.00,,,0.00,WUHU216HW,2014-01-10 03:25:00,
2014-01-09 20:30:00,27.9,13.8,29.82,NE,45,7.6,7.6,55,0.00,,,0.00,WUHU216HW,2014-01-10 03:30:00,
2014-01-09 20:35:00,27.7,14.1,29.83,ENE,68,2.2,8.5,56,0.00,,,0.00,WUHU216HW,2014-01-10 03:35:00,
2014-01-09 20:40:00,27.5,13.9,29.82,ESE,113,3.4,8.5,56,0.00,,,0.00,WUHU216HW,2014-01-10 03:40:00,
2014-01-09 20:45:00,27.4,13.7,29.82,SSE,158,3.4,5.4,56,0.00,,,0.00,WUHU216HW,2014-01-10 03:45:00,
2014-01-09 20:50:00,27.5,13.9,29.82,East,90,4.0,5.4,56,0.00,,,0.00,WUHU216HW,2014-01-10 03:50:00,
2014-01-09 20:55:00,27.5,13.9,29.81,SSE,158,1.3,4.5,56,0.00,,,0.00,WUHU216HW,2014-01-10 03:55:00,
2014-01-09 21:00:00,27.4,13.7,29.82,East,90,2.9,4.5,56,0.00,,,0.00,WUHU216HW,2014-01-10 04:00:00,
2014-01-09 21:05:00,27.4,14.0,29.82,ESE,113,0.4,3.4,57,0.00,,,0.00,WUHU216HW,2014-01-10 04:05:00,
2014-01-09 21:10:00,27.2,13.9,29.81,East,90,0.4,3.4,57,0.00,,,0.00,WUHU216HW,2014-01-10 04:10:00,
2014-01-09 21:15:00,27.0,13.7,29.82,ENE,68,1.1,3.4,57,0.00,,,0.00,WUHU216HW,2014-01-10 04:15:00,
2014-01-09 21:20:00,27.0,13.7,29.81,SSE,158,0.4,2.5,57,0.00,,,0.00,WUHU216HW,2014-01-10 04:20:00,
2014-01-09 21:25:00,26.8,14.0,29.81,NW,315,3.8,3.8,58,0.00,,,0.00,WUHU216HW,2014-01-10 04:25:00,
2014-01-09 21:30:00,26.3,13.4,29.81,WSW,248,1.1,4.7,58,0.00,,,0.00,WUHU216HW,2014-01-10 04:30:00,
2014-01-09 21:35:00,26.3,13.9,29.81,WSW,248,2.9,4.7,59,0.00,,,0.00,WUHU216HW,2014-01-10 04:35:00,
2014-01-09 21:40:00,26.5,14.1,29.81,SSE,158,0.9,3.4,59,0.00,,,0.00,WUHU216HW,2014-01-10 04:40:00,
2014-01-09 21:45:00,26.5,14.1,29.80,SSW,203,1.1,3.4,59,0.00,,,0.00,WUHU216HW,2014-01-10 04:45:00,
2014-01-09 21:50:00,26.3,13.9,29.80,SSW,203,3.4,6.9,59,0.00,,,0.00,WUHU216HW,2014-01-10 04:50:00,
2014-01-09 21:55:00,26.5,13.6,29.80,NW,315,2.0,6.9,58,0.00,,,0.00,WUHU216HW,2014-01-10 04:55:00,
2014-01-09 22:00:00,27.0,13.3,29.80,SW,225,11.2,11.4,56,0.00,,,0.00,WUHU216HW,2014-01-10 05:00:00,
2014-01-09 22:01:00,27.2,13.5,29.80,WSW,248,14.3,14.3,56,0.00,,,0.00,WUHU216HW,2014-01-10 05:01:00,
2014-01-09 22:06:00,29.0,13.6,29.79,WSW,248,14.1,19.2,52,0.00,,,0.00,WUHU216HW,2014-01-10 05:06:00,
2014-01-09 22:12:00,29.5,14.0,29.80,SSW,203,5.4,19.2,52,0.00,,,0.00,WUHU216HW,2014-01-10 05:12:00,
2014-01-09 22:17:00,29.5,14.0,29.79,South,180,4.0,14.1,52,0.00,,,0.00,WUHU216HW,2014-01-10 05:17:00,
2014-01-09 22:22:00,29.3,13.9,29.79,SE,135,5.6,7.2,52,0.00,,,0.00,WUHU216HW,2014-01-10 05:22:00,
2014-01-09 22:27:00,29.2,14.1,29.78,SW,225,0.4,7.2,53,0.00,,,0.00,WUHU216HW,2014-01-10 05:27:00,
2014-01-09 22:32:00,28.8,14.2,29.78,SE,135,4.5,5.6,54,0.00,,,0.00,WUHU216HW,2014-01-10 05:32:00,
2014-01-09 22:37:00,28.8,14.2,29.77,ESE,113,2.5,7.2,54,0.00,,,0.00,WUHU216HW,2014-01-10 05:37:00,
2014-01-09 22:42:00,28.6,14.5,29.77,East,90,1.6,7.2,55,0.00,,,0.00,WUHU216HW,2014-01-10 05:42:00,
2014-01-09 22:47:00,28.6,14.5,29.77,SE,135,3.8,8.1,55,0.00,,,0.00,WUHU216HW,2014-01-10 05:47:00,
2014-01-09 22:52:00,28.4,14.8,29.77,ESE,113,4.7,8.1,56,0.00,,,0.00,WUHU216HW,2014-01-10 05:52:00,
2014-01-09 22:57:00,28.1,15.6,29.77,NE,45,5.4,8.5,59,0.00,,,0.00,WUHU216HW,2014-01-10 05:57:00,
2014-01-09 23:02:00,27.7,15.2,29.77,SSW,203,6.9,9.4,59,0.00,,,0.00,WUHU216HW,2014-01-10 06:02:00,
2014-01-09 23:07:00,27.7,15.2,29.78,SSE,158,4.3,9.4,59,0.00,,,0.00,WUHU216HW,2014-01-10 06:07:00,
2014-01-09 23:12:00,27.7,14.9,29.78,SSE,158,2.9,7.6,58,0.00,,,0.00,WUHU216HW,2014-01-10 06:12:00,
2014-01-09 23:17:00,27.7,15.2,29.78,ESE,113,0.7,3.6,59,0.00,,,0.00,WUHU216HW,2014-01-10 06:17:00,
2014-01-09 23:22:00,27.7,15.2,29.78,South,180,2.9,3.6,59,0.00,,,0.00,WUHU216HW,2014-01-10 06:22:00,
2014-01-09 23:27:00,27.7,15.2,29.77,ESE,113,2.5,3.4,59,0.00,,,0.00,WUHU216HW,2014-01-10 06:27:00,
2014-01-09 23:32:00,27.7,15.2,29.77,East,90,3.4,3.4,59,0.00,,,0.00,WUHU216HW,2014-01-10 06:32:00,
2014-01-09 23:37:00,27.5,14.7,29.77,NNW,338,1.3,3.4,58,0.00,,,0.00,WUHU216HW,2014-01-10 06:37:00,
2014-01-09 23:42:00,27.7,14.9,29.76,SSE,158,1.3,3.4,58,0.00,,,0.00,WUHU216HW,2014-01-10 06:42:00,
2014-01-09 23:47:00,27.7,14.9,29.76,SSE,158,1.6,1.6,58,0.00,,,0.00,WUHU216HW,2014-01-10 06:47:00,
2014-01-09 23:52:00,27.7,15.2,29.76,South,180,1.8,5.4,59,0.00,,,0.00,WUHU216HW,2014-01-10 06:52:00,
2014-01-09 23:57:00,27.7,15.2,29.76,ENE,68,1.8,5.4,59,0.00,,,0.00,WUHU216HW,2014-01-10 06:57:00,